Stations météo

réclame
Mon MeteoGroup
Stockholm/Arlanda, Suède (2460): Température de l'air & dewpoint: 08.08.2018 17:00:00 - 14.08.2018 17:00:00 (CEST)Stockholm/Arlanda, Suède (2460): Vitesse du vent: 08.08.2018 17:00:00 - 14.08.2018 17:00:00 (CEST)Stockholm/Arlanda, Suède (2460): Direction du vent: 08.08.2018 17:00:00 - 14.08.2018 17:00:00 (CEST)Stockholm/Arlanda, Suède (2460): reduced air pressure: 08.08.2018 17:00:00 - 14.08.2018 17:00:00 (CEST)Stockholm/Arlanda, Suède (2460): visibility: 08.08.2018 17:00:00 - 14.08.2018 17:00:00 (CEST)
Date & Time tt [°C] td [°C] ff [km/h] ff [knt] dd ppp [hPa] vv [km]
14.08.2018 17:00:00 - - - - - - -
14.08.2018 16:00:00 18,5 10,8 11 6 SSE 1009,3 45
14.08.2018 15:00:00 19,2 7,9 18 10 SE 1009,7 45
14.08.2018 14:00:00 19,8 7,2 18 10 SE 1009,6 45
14.08.2018 13:00:00 20,0 7,0 11 6 E 1009,5 50
14.08.2018 12:00:00 19,9 5,9 11 6 SE 1009,7 45
14.08.2018 11:00:00 19,9 6,6 4 2 NE 1010,0 45
14.08.2018 10:00:00 19,7 8,7 4 2 N 1010,2 45
14.08.2018 09:00:00 18,5 10,3 0 0 N 1010,3 50
14.08.2018 08:00:00 15,7 11,9 0 0 N 1010,2 45
14.08.2018 07:00:00 12,7 11,3 0 0 N 1010,3 45
14.08.2018 06:00:00 9,5 8,7 0 0 N 1010,4 50
14.08.2018 05:00:00 7,2 6,9 0 0 N 1010,4 35
14.08.2018 04:00:00 7,6 7,3 0 0 N 1010,3 35
14.08.2018 03:00:00 8,0 7,6 0 0 N 1010,3 40
14.08.2018 02:00:00 8,2 7,8 0 0 N 1010,1 30
14.08.2018 01:00:00 8,5 7,9 0 0 N 1010,1 45
14.08.2018 00:00:00 8,7 7,9 0 0 N 1010,0 50
13.08.2018 23:00:00 10,0 8,4 0 0 N 1009,7 50
13.08.2018 22:00:00 11,0 8,7 0 0 N 1009,7 50
13.08.2018 21:00:00 13,4 9,8 0 0 N 1009,6 45
13.08.2018 20:00:00 17,8 10,7 0 0 N 1009,3 50
13.08.2018 19:00:00 19,2 7,6 7 4 WNW 1009,2 50
13.08.2018 18:00:00 19,7 7,1 7 4 WSW 1009,1 50
13.08.2018 17:00:00 19,6 7,7 7 4 W 1009,2 45
13.08.2018 16:00:00 19,5 8,2 11 6 NW 1009,1 45
13.08.2018 15:00:00 19,0 8,0 11 6 W 1009,1 50
13.08.2018 14:00:00 18,1 8,4 11 6 SW 1009,4 50
13.08.2018 13:00:00 17,7 7,7 14 8 WSW 1009,5 40
13.08.2018 12:00:00 16,8 6,9 14 8 W 1009,4 45
13.08.2018 11:00:00 16,1 8,1 11 6 W 1009,5 45
13.08.2018 10:00:00 14,8 9,0 11 6 W 1009,4 45
13.08.2018 09:00:00 13,7 9,9 7 4 W 1009,1 50
13.08.2018 08:00:00 12,2 10,6 11 6 W 1009,1 50
13.08.2018 07:00:00 10,8 10,6 4 2 W 1008,8 45
13.08.2018 06:00:00 9,1 9,1 7 4 W 1008,7 26
13.08.2018 05:00:00 9,1 9,1 4 2 W 1008,4 25
13.08.2018 04:00:00 9,7 9,6 7 4 W 1008,2 30
13.08.2018 03:00:00 10,2 9,7 7 4 W 1007,9 45
13.08.2018 02:00:00 11,0 10,2 7 4 W 1007,8 50
13.08.2018 01:00:00 11,2 10,4 7 4 W 1007,7 50
13.08.2018 00:00:00 11,6 10,8 7 4 W 1007,7 50
12.08.2018 23:00:00 11,6 10,8 7 4 W 1007,4 45
12.08.2018 22:00:00 11,7 10,9 7 4 W 1007,2 50
12.08.2018 21:00:00 11,8 11,3 7 4 W 1006,9 40
12.08.2018 20:00:00 12,0 11,2 11 6 W 1006,4 40
12.08.2018 19:00:00 12,2 11,4 11 6 WNW 1005,9 21
12.08.2018 18:00:00 12,7 12,1 11 6 WNW 1005,3 15
12.08.2018 17:00:00 13,7 13,2 11 6 W 1004,8 16
12.08.2018 16:00:00 13,4 12,9 7 4 W 1004,5 11
12.08.2018 15:00:00 15,1 12,2 7 4 WNW 1003,9 50
12.08.2018 14:00:00 13,5 12,6 7 4 NW 1003,8 7
12.08.2018 13:00:00 15,7 11,5 4 2 WNW 1003,3 50
12.08.2018 12:00:00 13,9 12,5 4 2 NNW 1003,4 18
12.08.2018 11:00:00 13,3 12,0 11 6 NW 1003,3 13
12.08.2018 10:00:00 14,7 12,4 7 4 NNW 1003,3 45
12.08.2018 09:00:00 14,4 12,4 4 2 NNW 1003,3 50
12.08.2018 08:00:00 14,1 12,3 4 2 NNE 1003,5 50
12.08.2018 07:00:00 13,3 12,4 4 2 NE 1004,0 45
12.08.2018 06:00:00 12,4 11,9 7 4 NNE 1004,3 26
12.08.2018 05:00:00 12,5 12,0 7 4 NNE 1005,2 24
12.08.2018 04:00:00 13,2 11,9 0 0 N 1006,1 20
12.08.2018 03:00:00 13,1 12,2 0 0 N 1006,5 21
12.08.2018 02:00:00 13,4 11,6 4 2 SW 1007,3 26
12.08.2018 01:00:00 16,6 9,0 14 8 S 1007,8 45
12.08.2018 00:00:00 17,0 10,8 7 4 SE 1008,4 50
11.08.2018 23:00:00 16,7 10,8 0 0 N 1009,2 50
11.08.2018 22:00:00 16,6 11,5 0 0 N 1010,0 45
11.08.2018 21:00:00 17,8 11,1 11 6 SSW 1010,5 45
11.08.2018 20:00:00 18,8 10,6 14 8 SSW 1011,1 50
11.08.2018 19:00:00 19,6 11,1 18 10 S 1011,2 50
11.08.2018 18:00:00 21,4 7,6 11 6 SW 1011,6 45
11.08.2018 17:00:00 22,4 7,0 14 8 SW 1012,2 45
11.08.2018 16:00:00 22,3 7,3 14 8 SSW 1012,7 50
11.08.2018 15:00:00 21,3 8,2 14 8 SW 1013,4 50
11.08.2018 14:00:00 21,5 7,7 18 10 SSW 1013,9 45
11.08.2018 13:00:00 20,1 7,5 22 12 SSW 1014,4 40
11.08.2018 12:00:00 20,2 9,1 18 10 SW 1014,6 45
11.08.2018 11:00:00 19,0 8,9 18 10 WSW 1014,8 50
11.08.2018 10:00:00 18,2 8,7 22 12 SW 1014,8 35
11.08.2018 09:00:00 17,1 9,5 22 12 SW 1014,8 40
11.08.2018 08:00:00 16,3 9,7 22 12 SW 1014,7 45
11.08.2018 07:00:00 15,6 9,9 22 12 SW 1014,3 30
11.08.2018 06:00:00 15,0 9,4 22 12 SW 1013,8 50
11.08.2018 05:00:00 14,8 8,7 18 10 SW 1013,5 45
11.08.2018 04:00:00 15,2 8,7 18 10 SW 1013,2 45
11.08.2018 03:00:00 15,8 9,0 22 12 SW 1012,9 50
11.08.2018 02:00:00 16,5 8,7 29 16 SW 1012,8 50
11.08.2018 01:00:00 16,9 8,3 29 16 SW 1012,8 50
11.08.2018 00:00:00 17,3 8,2 29 16 SSW 1012,8 50
10.08.2018 23:00:00 17,9 8,7 22 12 SW 1012,3 50
10.08.2018 22:00:00 19,1 9,3 25 14 SW 1011,7 50
10.08.2018 21:00:00 20,1 9,6 29 16 SSW 1010,7 50
10.08.2018 20:00:00 21,4 9,3 32 18 SW 1009,8 45
10.08.2018 19:00:00 22,8 10,9 32 18 SW 1009,1 40
10.08.2018 18:00:00 24,3 12,3 25 14 SW 1008,5 45
10.08.2018 17:00:00 24,4 12,7 32 18 SW 1008,3 50
10.08.2018 16:00:00 26,4 14,8 29 16 SW 1007,5 45
10.08.2018 15:00:00 26,3 18,2 32 18 S 1006,8 35
10.08.2018 14:00:00 26,9 18,7 25 14 S 1006,7 30
10.08.2018 13:00:00 27,1 18,9 29 16 S 1006,6 40
10.08.2018 12:00:00 26,9 19,5 36 19 S 1007,0 40
10.08.2018 11:00:00 26,1 20,0 29 16 S 1006,8 24
10.08.2018 10:00:00 22,7 20,6 22 12 SE 1007,3 30
10.08.2018 09:00:00 22,4 20,5 11 6 SE 1007,6 29
10.08.2018 08:00:00 22,4 19,6 18 10 SSE 1008,8 30
10.08.2018 07:00:00 21,5 19,2 14 8 ESE 1008,7 28
10.08.2018 06:00:00 20,3 19,0 14 8 ESE 1009,7 21
10.08.2018 05:00:00 19,6 17,9 11 6 ESE 1010,8 23
10.08.2018 04:00:00 19,6 17,9 11 6 ESE 1011,7 25
10.08.2018 03:00:00 19,6 18,3 7 4 SE 1012,0 19
10.08.2018 02:00:00 20,0 18,1 11 6 SE 1012,7 18
10.08.2018 01:00:00 20,0 18,0 4 2 E 1013,1 21
10.08.2018 00:00:00 20,4 17,8 4 2 E 1013,6 28
09.08.2018 23:00:00 21,2 18,0 7 4 SSW 1013,6 26
09.08.2018 22:00:00 23,3 18,0 14 8 S 1013,7 35
09.08.2018 21:00:00 23,6 16,4 11 6 SSW 1013,5 40
09.08.2018 20:00:00 25,3 15,9 11 6 SSW 1013,4 35
09.08.2018 19:00:00 26,2 16,2 14 8 SW 1013,1 35
09.08.2018 18:00:00 26,9 16,2 18 10 SW 1013,1 40
09.08.2018 17:00:00 27,1 16,7 18 10 SW 1013,0 30
09.08.2018 16:00:00 26,9 17,4 18 10 SW 1013,1 28
09.08.2018 15:00:00 26,7 18,0 18 10 SW 1013,6 35
09.08.2018 14:00:00 26,8 17,6 14 8 SW 1013,4 35
09.08.2018 13:00:00 26,0 17,6 11 6 WSW 1013,4 30
09.08.2018 12:00:00 24,9 17,4 14 8 SW 1013,3 50
09.08.2018 11:00:00 24,7 18,6 11 6 SSW 1013,1 45
09.08.2018 10:00:00 23,2 18,3 11 6 SSW 1012,7 45
09.08.2018 09:00:00 22,1 18,5 7 4 S 1012,5 40
09.08.2018 08:00:00 22,0 18,2 7 4 SSW 1012,4 45
09.08.2018 07:00:00 21,3 17,9 14 8 S 1012,4 45
09.08.2018 06:00:00 19,5 18,8 7 4 S 1012,2 25
09.08.2018 05:00:00 18,6 18,4 0 0 N 1011,4 16
09.08.2018 04:00:00 20,2 18,9 7 4 SSE 1011,3 35
09.08.2018 03:00:00 20,5 19,0 7 4 SSE 1011,5 29
09.08.2018 02:00:00 22,1 17,7 11 6 SSW 1012,1 45
09.08.2018 01:00:00 22,9 16,7 18 10 S 1011,8 50
09.08.2018 00:00:00 23,3 15,4 25 14 S 1011,2 50
08.08.2018 23:00:00 23,8 15,0 25 14 SSE 1011,1 50
08.08.2018 22:00:00 24,4 14,5 29 16 SSE 1011,0 45
08.08.2018 21:00:00 25,7 11,5 32 18 SSE 1010,5 50
08.08.2018 20:00:00 26,7 9,5 36 19 S 1010,6 50
08.08.2018 19:00:00 27,4 10,6 32 18 S 1010,5 45
08.08.2018 18:00:00 28,3 11,4 36 19 S 1010,8 45
08.08.2018 17:00:00 28,8 11,4 32 18 S 1011,1 50

tt = Température de l'air
td = dewpoint
ff = Vitesse du vent
dd = Direction du vent
ppp = reduced air pressure
vv = visibility

stations d'obs. à proximité